Location: Proctor
(47.8934°N, 114.3048°W)
Time: 08:23:52
(UTC+00:00)

Tiangong - Visible Passes

Search period start: 23 September 2023 00:00
Search period end: 03 October 2023 00:00
Orbit: 374 x 385 km, 41.5° (Epoch: 22 September)

Date Brightness Start Highest point End Pass type
(mag) Time Alt. Az. Time Alt. Az. Time Alt. Az.
30 Sep 0.2 02:42:29 10° S 02:43:37 13° SSE 02:43:37 13° SSE visible
01 Oct 0.2 03:16:11 10° SW 03:17:09 15° SSW 03:17:09 15° SSW visible
02 Oct -0.2 02:15:04 10° SSW 02:17:10 17° SSE 02:18:27 14° SE visible
